TimeCET,TemperatureF,Dew PointF,Humidity,Sea Level PressureIn,VisibilityMPH,Wind Direction,Wind SpeedMPH,Gust SpeedMPH,PrecipitationIn,Events,Conditions,WindDirDegrees,DateUTC
12:25 AM,30.2,21.2,69,29.74,6.2,ENE,10.4,-,N/A,,Unknown,70,2013-02-11 23:25:00
12:55 AM,28.4,21.2,74,29.77,6.2,ENE,10.4,-,N/A,,Unknown,70,2013-02-11 23:55:00
1:00 AM,29,22,65,29.78,6,ENE,11.2,,,,Partly Cloudy,70,2013-02-12 00:00:00
1:25 AM,28.4,21.2,74,29.77,6.2,ENE,10.4,-,N/A,,Unknown,70,2013-02-12 00:25:00
1:55 AM,28.4,23.0,80,29.77,5.6,ENE,9.2,-,N/A,,Haze,70,2013-02-12 00:55:00
2:25 AM,28.4,23.0,80,29.77,5.6,ENE,10.4,-,N/A,,Haze,70,2013-02-12 01:25:00
2:55 AM,28.4,23.0,80,29.80,5.0,ENE,9.2,-,N/A,,Haze,60,2013-02-12 01:55:00
3:25 AM,28.4,23.0,80,29.80,5.0,ENE,9.2,-,N/A,,Haze,60,2013-02-12 02:25:00
3:55 AM,26.6,23.0,86,29.80,5.0,NE,6.9,-,N/A,,Haze,50,2013-02-12 02:55:00
4:00 AM,27,23,78,29.83,5,NE,8.9,,,,Light Haze,50,2013-02-12 03:00:00
4:03 AM,26.6,23.0,86,29.80,4.3,NE,8.1,-,N/A,,Mist,50,2013-02-12 03:03:00
4:09 AM,26.6,23.0,86,29.80,5.0,ENE,8.1,-,N/A,,Mist,60,2013-02-12 03:09:00
4:13 AM,26.6,23.0,86,29.80,4.3,NE,8.1,-,N/A,,Mist,50,2013-02-12 03:13:00
4:17 AM,26.6,23.0,86,29.80,5.0,ENE,8.1,-,N/A,,Mist,60,2013-02-12 03:17:00
4:25 AM,26.6,23.0,86,29.80,5.0,ENE,8.1,-,N/A,,Mist,60,2013-02-12 03:25:00
4:38 AM,28.4,23.0,80,29.83,5.0,ENE,9.2,-,N/A,,Mist,60,2013-02-12 03:38:00
4:55 AM,26.6,21.2,80,29.83,5.0,NE,8.1,-,N/A,,Mist,50,2013-02-12 03:55:00
4:59 AM,26.6,23.0,86,29.83,4.3,NE,8.1,-,N/A,,Mist,50,2013-02-12 03:59:00
5:03 AM,26.6,23.0,86,29.83,5.0,NE,8.1,-,N/A,,Mist,50,2013-02-12 04:03:00
5:07 AM,26.6,23.0,86,29.83,4.3,NE,9.2,-,N/A,,Mist,50,2013-02-12 04:07:00
5:11 AM,26.6,23.0,86,29.83,5.0,NE,9.2,-,N/A,,Mist,50,2013-02-12 04:11:00
5:16 AM,26.6,23.0,86,29.83,4.3,NE,9.2,-,N/A,,Mist,50,2013-02-12 04:16:00
5:25 AM,26.6,23.0,86,29.83,4.3,NE,8.1,-,N/A,,Mist,50,2013-02-12 04:25:00
5:55 AM,26.6,23.0,86,29.83,4.3,NE,8.1,-,N/A,,Mist,50,2013-02-12 04:55:00
6:25 AM,26.6,21.2,80,29.86,4.3,NE,8.1,-,N/A,,Mist,50,2013-02-12 05:25:00
6:31 AM,26.6,23.0,86,29.86,4.3,NE,9.2,-,N/A,,Mist,50,2013-02-12 05:31:00
6:32 AM,26.6,21.2,80,29.86,4.3,NE,9.2,-,N/A,,Mist,50,2013-02-12 05:32:00
6:55 AM,26.6,21.2,80,29.86,4.3,NE,8.1,-,N/A,,Mist,50,2013-02-12 05:55:00
7:00 AM,26,22,77,29.87,4,NE,8.9,,,,Mist,50,2013-02-12 06:00:00
7:25 AM,24.8,21.2,86,29.86,3.7,NE,6.9,-,N/A,,Mostly Cloudy,40,2013-02-12 06:25:00
7:48 AM,28.4,23.0,80,29.89,3.7,NE,6.9,-,N/A,,Overcast,50,2013-02-12 06:48:00
7:55 AM,28.4,23.0,80,29.89,3.7,NE,6.9,-,N/A,,Overcast,50,2013-02-12 06:55:00
8:25 AM,30.2,23.0,75,29.89,5.0,ENE,8.1,-,N/A,,Haze,70,2013-02-12 07:25:00
8:55 AM,30.2,23.0,75,29.89,5.0,ENE,8.1,-,N/A,,Haze,70,2013-02-12 07:55:00
9:07 AM,30.2,23.0,75,29.92,5.0,ENE,8.1,-,N/A,,Haze,70,2013-02-12 08:07:00
9:25 AM,30.2,23.0,75,29.92,5.0,ENE,10.4,-,N/A,,Haze,70,2013-02-12 08:25:00
9:36 AM,30.2,23.0,75,29.92,5.6,ENE,10.4,-,N/A,,Overcast,60,2013-02-12 08:36:00
9:55 AM,32.0,23.0,69,29.92,5.0,ENE,9.2,-,N/A,,Haze,70,2013-02-12 08:55:00
10:00 AM,31,23,61,29.94,6,ENE,6.7,,,,Light Haze,70,2013-02-12 09:00:00
10:25 AM,32.0,23.0,69,29.92,5.6,ENE,9.2,-,N/A,,Haze,70,2013-02-12 09:25:00
11:25 AM,32.0,23.0,69,29.95,5.6,ENE,10.4,-,N/A,,Haze,70,2013-02-12 10:25:00
11:55 AM,32.0,21.2,64,29.95,5.0,ENE,11.5,-,N/A,,Haze,70,2013-02-12 10:55:00
12:25 PM,32.0,23.0,69,29.95,5.0,ENE,9.2,-,N/A,,Haze,70,2013-02-12 11:25:00
12:55 PM,32.0,21.2,64,29.95,5.6,ENE,10.4,-,N/A,,Haze,70,2013-02-12 11:55:00
1:00 PM,32,21,51,29.98,6,East,6.7,,,,Light Haze,80,2013-02-12 12:00:00
1:25 PM,32.0,21.2,64,29.98,5.6,NE,8.1,-,N/A,,Haze,50,2013-02-12 12:25:00
1:55 PM,32.0,21.2,64,29.98,5.6,NE,10.4,-,N/A,,Haze,50,2013-02-12 12:55:00
1:57 PM,32.0,21.2,64,29.98,5.6,NE,10.4,-,N/A,,Haze,50,2013-02-12 12:57:00
2:25 PM,32.0,21.2,64,29.98,5.6,East,9.2,-,N/A,,Haze,80,2013-02-12 13:25:00
2:55 PM,32.0,21.2,64,29.98,5.6,NE,9.2,-,N/A,,Haze,50,2013-02-12 13:55:00
3:25 PM,32.0,21.2,64,29.98,5.6,ENE,9.2,-,N/A,,Haze,70,2013-02-12 14:25:00
3:55 PM,32.0,21.2,64,29.98,5.6,ENE,9.2,-,N/A,,Haze,70,2013-02-12 14:55:00
4:00 PM,32,20,50,30.01,6,ENE,8.9,,,,Light Haze,60,2013-02-12 15:00:00
4:25 PM,32.0,21.2,64,29.98,5.6,ENE,9.2,-,N/A,,Haze,60,2013-02-12 15:25:00
4:31 PM,32.0,21.2,64,29.98,4.3,NE,9.2,-,N/A,,Haze,50,2013-02-12 15:31:00
4:32 PM,32.0,21.2,64,29.98,5.6,NE,9.2,-,N/A,,Haze,50,2013-02-12 15:32:00
4:45 PM,32.0,19.4,60,30.01,5.6,ENE,9.2,-,N/A,,Haze,60,2013-02-12 15:45:00
4:55 PM,32.0,19.4,60,30.01,5.6,East,8.1,-,N/A,,Haze,80,2013-02-12 15:55:00
5:25 PM,32.0,21.2,64,30.01,5.6,ENE,11.5,-,N/A,,Haze,60,2013-02-12 16:25:00
5:55 PM,32.0,19.4,60,30.01,5.6,NE,10.4,-,N/A,,Haze,50,2013-02-12 16:55:00
6:25 PM,32.0,19.4,60,30.04,5.6,ENE,9.2,-,N/A,,Haze,60,2013-02-12 17:25:00
6:55 PM,32.0,19.4,60,30.04,5.6,ENE,5.8,-,N/A,,Haze,70,2013-02-12 17:55:00
7:00 PM,32,19,46,30.06,6,ENE,6.7,,,,Light Haze,70,2013-02-12 18:00:00
7:25 PM,32.0,19.4,60,30.06,5.6,ENE,5.8,-,N/A,,Haze,70,2013-02-12 18:25:00
7:55 PM,32.0,17.6,55,30.06,6.2,East,5.8,-,N/A,,Overcast,90,2013-02-12 18:55:00
8:25 PM,32.0,19.4,60,30.06,5.6,NE,4.6,-,N/A,,Haze,50,2013-02-12 19:25:00
8:55 PM,30.2,21.2,69,30.06,5.6,North,4.6,-,N/A,,Haze,360,2013-02-12 19:55:00
9:25 PM,30.2,23.0,75,30.09,5.0,North,3.5,-,N/A,,Haze,360,2013-02-12 20:25:00
9:55 PM,30.2,21.2,69,30.09,5.0,North,2.3,-,N/A,,Haze,350,2013-02-12 20:55:00
10:00 PM,30,22,62,30.11,5,NNW,2.2,,,,Light Haze,340,2013-02-12 21:00:00
10:12 PM,30.2,23.0,75,30.09,4.3,NNW,2.3,-,N/A,,Haze,330,2013-02-12 21:12:00
10:13 PM,30.2,23.0,75,30.09,5.0,NNW,2.3,-,N/A,,Haze,330,2013-02-12 21:13:00
10:21 PM,30.2,23.0,75,30.09,4.3,NNW,2.3,-,N/A,,Haze,330,2013-02-12 21:21:00
10:25 PM,30.2,23.0,75,30.09,5.0,NNW,2.3,-,N/A,,Haze,330,2013-02-12 21:25:00
10:31 PM,30.2,23.0,75,30.09,4.3,NW,2.3,-,N/A,,Haze,320,2013-02-12 21:31:00
10:36 PM,30.2,23.0,75,30.09,5.0,NW,2.3,-,N/A,,Haze,310,2013-02-12 21:36:00
10:40 PM,30.2,23.0,75,30.09,4.3,WNW,2.3,-,N/A,,Haze,300,2013-02-12 21:40:00
10:50 PM,30.2,23.0,75,30.09,5.0,WNW,2.3,-,N/A,,Haze,290,2013-02-12 21:50:00
10:55 PM,30.2,23.0,75,30.09,4.3,WNW,2.3,-,N/A,,Haze,290,2013-02-12 21:55:00
11:25 PM,30.2,23.0,75,30.09,4.3,NW,3.5,-,N/A,,Haze,310,2013-02-12 22:25:00
11:55 PM,30.2,23.0,75,30.09,4.3,NW,3.5,-,N/A,,Haze,320,2013-02-12 22:55:00